Presure
312 174 310 303 307 297 334 244 305 286 278 254 248 244 229 236 321 297 277 257 241 230 219 214 214 208 183 191 192 206 179 185 211 183 185 229 214 212 196 206 221 205 197 189 215 217 235
227 346 349 339 353 344 323 303 293 264 270 250 241 239 237 315 304 283 263 245 241 231 223 211 216 210 197 200 191 177 200 214 204 202 216 210 217 218 230 201 233 222 194 203 218 217 117
345 339 337 335 339 323 313 297 281 255 263 247 237 233 232 303 289 269 256 242 232 232 217 217 216 216 198 198 195 199 204 204 216 202 209 209 218 214 221 202 236 240 190 184 206 215 233
320 323 330 335 329 315 311 295 285 259 261 248 238 232 232 295 281 265 254 240 229 146 127 216 215 218 212 204 197 193 196 207 179 210 209 209 223 231 214 215 215 229 222 196 201 214 228
299 303 283 291 326 251 302 296 279 268 263 248 240 231 226 292 281 264 254 241 235 231 229 217 212 211 208 212 202 198 203 207 213 213 210 214 232 235 213 236 197 223 208 227 213 207 203
287 284 288 279 276 270 267 318 285 267 264 249 247 235 226 220 291 273 253 249 243 224 232 225 218 210 190 207 203 208 200 207 209 213 213 223 218 226 218 229 176 182 195 236 213 217 204
286 281 276 244 240 246 239 261 333 289 267 244 246 242 232 226 224 284 246 246 246 237 144 147 215 212 218 212 216 214 218 210 211 219 218 228 233 217 222 231 226 207 225 231 233 222 206
279 263 262 260 249 255 249 250 224 255 288 270 259 244 239 228 221 219 261 263 246 237 237 218 225 227 221 225 217 200 212 228 226 215 225 226 226 224 230 224 227 228 189 222 232 221 199
279 271 265 235 229 233 250 242 230 243 243 254 274 257 241 235 216 214 214 254 265 258 245 239 234 229 232 232 226 229 228 222 213 221 211 218 221 223 229 227 222 226 234 230 230 216 217
296 296 268 240 235 228 228 244 232 237 226 239 257 272 260 240 236 214 215 215 218 224 272 260 258 250 242 243 247 234 232 233 230 233 236 241 227 230 231 225 233 227 225 225 231 223 218
292 272 258 261 263 524 511 445 405 246 245 231 224 230 243 243 256 233 225 219 156 204 206 200 207 209 211 222 226 271 270 249 233 240 254 265 274 255 247 239 246 252 246 242 231 216 223
284 292 265 504 489 481 521 518 484 477 273 250 237 245 249 245 237 218 240 227 217 219 211 208 200 202 214 209 207 209 220 219 229 259 269 290 277 265 262 256 259 251 243 246 234 224 238
286 283 490 475 527 628 547 542 554 491 509 278 255 237 229 245 229 242 221 221 215 220 205 206 212 209 208 208 210 218 219 225 257 285 283 279 273 270 268 266 263 255 253 240 233 229 244
291 329 466 467 618 551 508 503 518 537 471 448 275 254 241 229 231 215 229 236 218 221 214 220 207 223 209 208 209 225 221 289 293 289 274 268 260 260 112 262 261 257 244 94 119 246 231
283 474 453 589 577 435 484 480 508 483 474 472 427 267 247 240 230 221 210 206 218 213 219 215 209 201 216 220 237 233 281 272 270 255 253 250 250 246 246 247 247 248 248 245 235 117 244
285 462 462 600 437 433 478 488 462 489 510 383 357 337 262 256 235 234 229 222 215 215 207 200 220 215 230 237 237 272 261 249 242 260 351 446 429 402 396 204 313 367 358 361 379 376 363
288 453 483 559 466 429 437 463 466 485 439 377 336 343 321 275 260 242 229 225 225 225 219 223 221 224 232 263 265 246 233 250 331 365 341 346 345 362 366 360 365 372 331 303 180 363 364
295 450 509 562 439 448 450 465 486 517 408 373 318 330 313 272 273 245 220 221 231 229 220 220 220 231 264 259 236 226 208 318 306 317 307 313 313 317 329 341 350 354 369 354 355 331 360
381 445 540 453 442 499 510 481 476 398 345 325 324 316 306 311 318 278 245 248 238 235 234 209 240 260 245 227 270 225 305 289 301 298 289 285 303 294 302 320 367 362 170 390 364 348 322
370 441 551 464 448 489 437 480 429 340 327 350 318 306 297 311 314 295 315 285 255 244 225 242 257 241 228 313 307 247 165 210 264 263 262 265 259 263 260 259 263 362 281 379 360 321 295
353 451 528 609 454 409 419 422 340 341 315 312 339 341 320 320 298 308 305 348 269 256 252 255 241 245 287 274 242 188 191 248 253 249 247 241 222 245 249 248 251 256 267 270 263 257 262
350 541 481 466 390 391 433 408 335 332 296 289 317 321 301 302 260 160 326 305 282 273 250 236 224 236 222 226 227 208 214 244 219 129 238 231 234 117 245 236 247 245 258 246 260 247 243
361 558 487 380 370 356 352 328 315 311 317 311 299 297 290 300 343 314 295 296 274 250 233 155 224 237 234 261 204 218 200 240 213 232 231 237 234 238 187 91 253 235 248 127 244 244 247
395 573 452 370 344 353 328 293 325 279 274 285 294 271 288 313 287 287 281 259 247 234 234 215 228 246 243 238 239 187 218 238 185 226 228 193 230 225 176 235 234 176 237 207 233 235 238
580 562 403 397 344 353 316 313 320 316 307 295 260 285 295 292 292 280 254 244 233 231 221 233 215 236 247 241 237 238 179 235 218 195 231 196 184 165 115 209 237 194 248 251 157 255 239
633 560 422 402 383 343 310 307 287 297 284 306 298 301 295 283 273 252 243 234 233 221 235 220 214 222 250 210 245 234 233 214 167 225 226 175 203 221 148 178 227 200 189 229 229 219 257
403 566 551 389 357 332 314 313 305 288 297 275 292 306 285 275 250 243 235 233 222 223 240 216 216 219 217 241 229 199 213 234 251 258 189 136 185 239 184 183 211 212 243 224 230 250 257
377 605 650 406 346 319 296 318 283 297 297 296 298 283 277 255 243 237 233 224 222 218 234 213 224 220 224 219 251 235 231 210 194 248 188 240 222 211 244 221 195 232 244 205 183 222 234
358 587 647 415 326 311 309 311 321 287 320 309 300 290 258 246 243 238 227 227 195 238 232 216 209 217 211 216 215 215 213 216 244 214 187 195 217 242 237 190 220 174 214 200 210 188 229
Wind_Speed
55 58 63 61 67 64 54 53 46 45 47 54 59 62 60 65 63 72 76 84 86 85 82 80 78 70 76 71 72 63 79 67 60 75 76 54 64 63 64 64 59 59 65 65 62 64 60
57 51 47 45 48 45 43 41 44 45 47 52 57 55 55 53 63 69 72 78 80 80 81 78 77 72 68 70 70 75 71 61 63 66 60 62 62 59 55 65 55 60 63 63 60 64 59
40 40 37 36 38 38 41 42 43 45 47 51 55 53 49 54 63 68 72 75 77 77 77 77 76 75 71 68 71 70 72 68 63 68 67 68 64 60 59 64 55 54 62 63 62 66 60
34 34 37 35 34 38 41 43 46 45 46 49 53 53 46 54 62 67 72 74 73 49 44 75 73 73 73 70 72 73 72 70 71 69 72 71 66 62 62 63 61 58 59 65 69 68 64
37 33 38 38 36 40 40 44 45 48 47 48 51 52 47 56 61 67 71 75 75 76 75 73 70 72 72 72 72 75 76 77 72 74 73 72 69 66 62 59 63 62 65 65 68 68 69
43 40 36 37 38 36 36 44 45 46 49 48 50 52 50 46 62 66 66 71 76 70 71 71 73 72 63 74 74 75 75 79 75 75 76 77 73 69 67 69 63 60 46 61 69 71 70
44 43 45 34 38 36 35 38 48 50 52 48 50 53 52 50 46 63 58 62 70 71 48 49 72 78 81 80 81 79 79 79 77 79 78 78 71 72 76 75 67 64 62 61 63 69 72
51 50 51 49 39 41 42 41 48 43 52 57 56 53 55 54 51 46 52 65 67 64 69 68 71 78 77 80 78 71 74 82 83 82 85 78 73 77 77 76 73 69 55 66 64 70 69
57 57 52 51 56 58 51 47 49 46 47 50 59 57 57 58 50 50 50 58 65 66 69 71 70 73 79 77 77 79 78 77 77 81 74 75 80 81 80 78 72 70 70 68 69 74 68
67 66 53 54 57 63 66 67 59 55 55 53 54 61 61 59 58 55 57 52 49 49 61 68 66 64 63 67 75 78 80 83 84 87 90 90 90 89 86 78 82 77 74 73 72 72 65
76 64 56 62 65 52 49 61 65 68 63 59 57 57 58 55 60 64 63 52 38 47 41 45 48 50 52 53 55 63 69 72 75 78 82 81 82 92 88 89 89 80 83 80 76 70 67
82 82 72 58 56 53 39 38 42 46 80 68 64 58 61 55 56 61 61 58 56 52 45 50 50 48 50 52 53 56 63 66 72 78 78 73 76 79 83 87 87 84 84 84 78 74 60
89 84 62 58 48 13 14 15 19 38 47 83 74 63 59 56 59 63 55 56 53 48 52 52 53 53 56 57 58 63 67 69 76 73 69 68 70 75 79 82 84 87 88 85 80 70 62
97 91 65 57 23 8 11 9 19 28 50 63 84 70 62 64 64 53 54 55 50 51 54 50 50 51 57 53 57 61 67 62 61 65 66 67 69 75 25 81 84 85 85 20 25 79 74
95 64 65 40 16 26 12 22 18 32 49 63 54 80 68 72 59 60 54 50 53 56 51 51 53 48 56 62 59 65 54 58 61 63 67 69 71 74 77 81 84 89 89 91 85 21 84
98 66 60 32 33 21 13 12 22 22 42 65 62 70 78 76 62 66 61 54 56 52 48 42 51 50 52 53 57 48 53 62 58 66 51 20 17 18 25 15 29 50 55 58 58 66 75
101 66 50 16 20 17 17 19 21 29 59 67 55 57 72 78 74 66 55 59 58 51 45 45 48 48 50 43 41 48 53 56 17 20 22 29 23 24 19 18 17 33 45 38 30 50 51
103 66 42 16 28 15 17 15 18 15 62 71 56 55 57 71 71 57 59 61 53 46 44 43 44 47 33 33 44 43 24 11 14 29 28 32 33 37 37 34 27 19 22 49 41 33 28
97 66 39 32 24 11 23 14 29 62 60 53 58 57 59 61 53 62 71 70 55 50 43 46 43 29 32 36 22 14 6 19 23 33 42 51 41 46 44 34 30 11 18 34 27 33 39
95 65 38 26 17 10 15 22 45 57 45 69 57 55 57 53 44 47 48 65 65 48 38 40 29 29 32 10 21 2 18 10 36 41 42 47 35 44 44 45 44 23 11 24 35 55 53
92 59 36 25 10 17 32 48 52 60 40 39 42 54 43 31 33 33 33 36 58 45 38 35 32 21 34 38 15 14 16 29 34 39 43 32 31 36 37 38 40 39 52 58 56 53 50
91 44 30 13 33 35 37 56 59 54 43 41 39 38 38 39 32 24 34 35 44 41 43 36 30 31 19 6 20 9 14 27 5 21 43 32 31 14 36 25 34 34 47 41 51 53 50
88 41 21 33 32 32 44 44 38 47 47 46 39 39 36 29 33 36 38 39 48 49 43 18 27 21 13 31 9 5 9 26 16 33 39 35 31 31 13 22 29 29 40 15 40 42 43
85 38 13 20 11 41 32 23 45 31 35 40 39 40 33 34 40 44 50 57 52 45 38 29 24 22 23 20 20 16 6 28 12 26 29 21 30 21 15 26 27 15 27 19 30 33 28
46 31 16 28 25 38 28 37 44 45 46 45 33 41 41 43 45 55 59 55 45 42 36 30 27 23 28 20 13 21 16 18 9 15 28 22 8 17 21 12 22 21 29 27 9 18 34
37 27 23 33 44 36 33 47 29 43 37 48 45 42 47 51 62 61 56 49 46 39 34 32 26 19 24 19 17 31 15 19 18 30 20 18 17 10 24 21 11 14 19 18 11 16 17
87 25 10 31 40 42 34 51 47 36 40 45 47 45 56 65 63 59 51 49 43 38 34 37 30 25 19 20 17 20 12 15 28 45 8 23 18 19 3 11 20 22 23 2 11 17 17
84 26 22 37 55 34 24 53 31 48 50 49 51 58 67 66 60 56 51 46 40 31 35 36 29 25 20 20 25 18 13 19 27 26 20 35 21 27 28 11 17 13 23 23 8 8 5
83 28 22 45 33 34 38 51 59 37 52 55 55 66 68 63 59 55 49 45 24 38 36 35 32 28 27 22 22 22 22 17 20 15 22 16 17 30 21 21 3 9 16 12 20 28 7
Wind_Direction
277 324 275 277 273 274 274 272 256 250 243 247 249 250 254 253 222 224 227 234 239 242 241 244 245 246 243 245 248 260 249 255 255 254 253 255 252 251 251 250 250 243 246 247 250 249 251
319 287 286 284 277 267 258 252 250 254 243 249 255 258 259 226 219 218 223 231 233 236 237 242 244 245 241 247 248 250 250 258 251 252 261 254 257 253 256 250 254 247 248 248 250 251 233
300 298 293 290 279 265 252 247 244 253 244 249 256 262 261 224 219 218 220 227 233 235 236 239 242 245 242 245 247 252 256 257 263 255 258 253 258 253 257 250 257 257 248 250 249 251 254
308 305 301 285 277 266 251 247 242 249 243 248 254 260 261 226 222 219 221 225 230 247 256 239 242 245 245 245 247 250 252 257 255 264 259 258 261 260 252 255 255 257 253 250 248 248 253
320 312 306 309 287 283 260 248 245 245 240 245 248 255 257 225 223 222 222 226 230 233 235 236 241 243 244 245 246 250 255 257 260 262 262 263 266 265 252 261 250 256 250 252 250 250 250
328 324 310 304 299 294 287 254 247 246 243 248 243 249 253 252 223 223 225 228 228 232 235 236 239 243 249 245 245 247 253 256 257 261 262 264 262 263 259 260 249 252 260 257 254 256 251
324 320 322 297 296 296 283 282 254 244 242 248 245 244 248 250 249 225 228 230 230 234 253 256 235 241 242 245 249 250 251 254 259 261 262 263 261 261 261 261 258 253 257 257 258 257 254
328 327 322 315 299 296 289 278 268 268 248 243 242 241 242 246 248 245 232 230 232 233 235 239 239 242 246 249 251 251 254 255 257 258 263 263 261 259 260 260 260 260 256 256 256 256 255
326 323 317 307 303 301 288 272 264 259 257 255 243 241 240 240 246 245 242 236 233 233 235 240 241 242 246 250 252 255 256 256 257 259 263 265 265 264 262 260 261 260 260 257 255 254 257
325 322 312 292 286 288 285 279 268 256 252 247 248 241 238 238 238 243 245 242 241 242 237 241 246 249 253 254 254 257 258 260 263 264 264 262 262 262 262 263 262 259 258 256 257 258 260
329 328 308 305 291 295 285 267 258 260 250 248 249 244 238 237 234 236 241 245 254 245 244 252 252 250 253 254 255 254 259 263 265 266 266 264 261 260 262 261 262 261 260 259 258 260 260
334 333 321 311 304 296 287 274 256 236 239 238 239 234 233 231 233 237 237 238 241 245 246 247 251 255 256 260 264 268 267 269 269 271 269 264 257 257 258 259 261 259 259 258 257 259 262
335 335 322 317 313 303 308 287 284 222 208 231 232 228 233 227 229 233 233 237 240 239 243 246 250 257 261 263 265 267 269 272 277 272 268 263 261 257 258 259 259 259 257 256 257 260 259
337 336 327 323 327 244 243 267 246 218 205 199 228 226 223 228 226 232 230 234 235 238 240 242 251 253 259 263 269 272 273 277 274 270 268 268 266 265 230 261 260 260 259 249 261 258 255
339 331 330 329 301 301 245 234 233 204 194 184 191 225 221 228 221 229 231 232 231 235 238 243 248 254 259 261 273 272 277 275 275 278 278 276 271 268 268 266 265 262 261 258 256 263 251
341 335 333 326 321 299 250 207 206 204 201 182 201 210 222 225 217 224 226 227 230 232 238 245 249 255 264 272 271 275 280 279 284 284 286 278 276 270 268 244 246 247 249 246 241 238 241
342 338 333 312 315 287 250 219 202 195 179 184 195 188 205 223 220 221 224 225 227 227 232 242 248 258 265 274 274 278 282 292 316 41 38 47 37 38 5 339 270 243 236 238 240 236 236
343 340 335 294 317 278 251 204 210 170 162 164 194 198 206 223 221 218 223 224 225 224 228 236 247 258 264 269 271 284 281 39 39 38 63 51 56 44 32 15 337 301 252 222 221 220 216
349 342 336 323 312 247 232 216 185 164 169 178 180 189 205 213 221 222 225 230 225 225 228 230 250 248 255 264 274 272 111 108 83 93 91 91 74 75 66 41 4 310 248 210 207 172 143
348 342 336 321 298 193 159 147 164 160 175 171 183 196 206 212 210 220 219 219 224 222 215 234 225 236 249 194 123 131 249 190 111 103 98 99 103 98 95 95 91 83 238 168 139 121 129
348 342 335 338 271 195 166 160 163 163 171 178 181 189 202 205 208 203 200 192 217 219 217 201 212 202 137 133 136 257 286 113 101 102 97 93 91 89 92 96 105 103 115 120 128 132 125
348 340 331 303 152 149 166 156 167 166 171 178 166 163 177 194 192 233 190 190 206 196 185 199 206 182 223 222 162 149 103 126 70 174 110 112 115 210 97 116 110 121 120 138 131 149 154
349 340 332 155 158 152 146 152 162 155 161 167 168 164 176 180 184 170 170 170 169 177 189 245 185 197 213 173 193 134 121 125 141 122 122 123 121 120 172 235 111 136 135 165 143 149 157
350 336 188 189 199 164 169 173 160 183 188 171 175 176 177 172 166 165 159 163 174 184 185 199 188 192 200 196 199 208 74 148 193 129 137 115 136 140 176 126 128 171 146 151 167 162 163
342 332 231 194 198 178 181 165 160 167 175 180 181 174 173 167 165 157 163 173 179 184 192 176 194 188 200 195 193 169 202 172 104 171 156 157 107 182 224 157 122 140 114 119 210 154 184
342 329 212 202 193 188 181 172 195 173 178 177 172 171 167 164 159 165 172 176 180 191 176 182 187 170 186 192 208 194 225 137 209 170 193 179 185 63 215 182 162 132 169 158 180 154 191
353 331 265 203 182 185 189 182 186 186 182 180 169 171 165 162 167 173 177 179 189 191 176 182 180 166 167 183 175 207 189 216 198 185 166 217 215 194 162 203 113 83 188 39 98 201 224
351 336 337 201 182 202 213 185 195 189 186 184 173 168 164 168 176 178 179 188 189 186 178 183 175 169 167 165 201 188 144 220 195 227 205 194 169 165 203 143 183 209 203 205 200 141 146
351 336 338 198 211 216 199 195 188 198 185 185 176 170 171 176 179 181 185 187 197 181 178 183 184 174 173 172 167 165 160 152 218 141 201 204 226 211 219 207 95 230 175 257 175 203 235